Spirit of St Louis, MO

10:17 AM CST on December 15, 2017 (GMT -0600)
Spirit Of Saint Louis

Weather History for KSUS - February, 2014

Change the Weather History Date:

Wednesday, February 12, 2014

  Actual Average Record
Temperature  
Mean Temperature 16 °F -  
Max Temperature 33 °F 44 °F 60 °F (2005)
Min Temperature -2 °F 26 °F -2 °F (2014)
Degree Days  
Heating Degree Days 50    
Moisture  
Dew Point 5 °F    
Average Humidity 67    
Maximum Humidity 83    
Minimum Humidity 38    
Precipitation  
Precipitation 0.00 in - - ()
Sea Level Pressure  
Sea Level Pressure 30.20 in    
Wind  
Wind Speed 1 mph (East)    
Max Wind Speed 7 mph    
Max Gust Speed -    
Visibility 10 miles    
Events      
Averages and records for this station are not official NWS values.
T = Trace of Precipitation, MM = Missing Value Source: NWS Daily Summary

Daily Weather History Graph

Daily Weather History Graph

Search for Another Location

Airport or City:

Trip Planner

Search our weather history database for the weather conditions in past years. The results will help you decide how hot, cold, wet, or windy it might be!

Date:

Astronomy

Feb. 12, 2014 Rise Set
Actual Time 6:57 AM CST 5:37 PM CST
Civil Twilight 6:29 AM CST 6:04 PM CST
Nautical Twilight 5:58 AM CST 6:35 PM CST
Astronomical Twilight 5:27 AM CST 7:06 PM CST
Moon 3:51 PM CST (2/12) 5:13 AM CST (2/12)
Length of Visible Light 11h 34m
Length of Day
10h 40m
Waxing Gibbous, 95% of the Moon is Illuminated
Feb 12
Waxing Gibbous
Feb 14
Full
Feb 22
Last Quarter
Mar 1
New
Mar 8
First Quarter

Hourly Weather History & Observations

Time (CST) Temp. Windchill Dew Point Humidity Pressure Visibility Wind Dir Wind Speed Gust Speed Precip Events Conditions
12:54 AM 1.0 °F - -4.0 °F 79% 30.38 in 10.0 mi Calm Calm - N/A   Clear
1:54 AM 1.0 °F - -4.0 °F 79% 30.38 in 10.0 mi Calm Calm - N/A   Clear
2:54 AM 1.0 °F - -2.9 °F 83% 30.34 in 10.0 mi Calm Calm - N/A   Clear
3:54 AM 1.0 °F - -4.0 °F 79% 30.32 in 10.0 mi Calm Calm - N/A   Clear
4:54 AM -2.9 °F - -8.0 °F 79% 30.31 in 10.0 mi Calm Calm - N/A   Clear
5:54 AM -2.0 °F - -7.1 °F 79% 30.30 in 10.0 mi Calm Calm - N/A   Clear
6:54 AM -2.0 °F - -7.1 °F 79% 30.30 in 10.0 mi Calm Calm - N/A   Clear
7:54 AM 3.0 °F - -2.9 °F 76% 30.29 in 10.0 mi Calm Calm - N/A   Clear
8:54 AM 9.0 °F 2.4 °F 1.9 °F 73% 30.30 in 9.0 mi West 3.5 mph - N/A   Clear
9:54 AM 14.0 °F - 5.0 °F 67% 30.29 in 10.0 mi Calm Calm - N/A   Clear
10:54 AM 19.9 °F - 7.0 °F 57% 30.25 in 10.0 mi Calm Calm - N/A   Clear
11:54 AM 27.0 °F - 10.0 °F 49% 30.22 in 10.0 mi Calm Calm - N/A   Clear
12:54 PM 30.9 °F - 8.1 °F 38% 30.17 in 10.0 mi Calm Calm - N/A   Clear
1:54 PM 30.0 °F 25.2 °F 12.0 °F 47% 30.13 in 10.0 mi East 4.6 mph - N/A   Clear
2:54 PM 33.1 °F 27.7 °F 10.9 °F 40% 30.11 in 10.0 mi ENE 5.8 mph - N/A   Mostly Cloudy
3:54 PM 33.1 °F 26.9 °F 16.0 °F 50% 30.09 in 10.0 mi East 6.9 mph - N/A   Scattered Clouds
4:54 PM 30.9 °F 25.2 °F 15.1 °F 52% 30.08 in 10.0 mi ENE 5.8 mph - N/A   Scattered Clouds
5:54 PM 25.0 °F 20.7 °F 12.9 °F 60% 30.09 in 10.0 mi ESE 3.5 mph - N/A   Clear
6:54 PM 21.0 °F - 12.9 °F 71% 30.11 in 10.0 mi Calm Calm - N/A   Clear
7:54 PM 19.9 °F - 10.9 °F 68% 30.11 in 10.0 mi Calm Calm - N/A   Clear
8:54 PM 19.0 °F - 10.9 °F 71% 30.08 in 10.0 mi Calm Calm - N/A   Clear
9:54 PM 12.9 °F - 8.1 °F 81% 30.06 in 10.0 mi Calm Calm - N/A   Clear
10:54 PM 12.9 °F - 8.1 °F 81% 30.06 in 10.0 mi Calm Calm - N/A   Clear
11:54 PM 10.0 °F - 5.0 °F 80% 30.05 in 10.0 mi Calm Calm - N/A   Clear